This is the latest recevied weather packets stored in our database for station/object KE0PRS. If no packets are shown the sender has not sent any weather packets the latest 10 day(s).
| Time | Temp. | Humidity | Pressure | Rain* | Wind** | Luminosity | Snow |
|---|---|---|---|---|---|---|---|
| 1777845565 | 29.44° C | 17% | 1008.4 hPa | 0 mm | - | 307 W/m² | - |
| 1777845262 | 29.44° C | 17% | 1008.5 hPa | 0 mm | - | 235 W/m² | - |
| 1777844959 | 30° C | 16% | 1008.4 hPa | 0 mm | - | 333 W/m² | - |
| 1777844657 | 30° C | 16% | 1008.6 hPa | 0 mm | - | 554 W/m² | - |
| 1777844354 | 30.56° C | 16% | 1008.5 hPa | 0 mm | - | 433 W/m² | - |
| 1777844052 | 31.11° C | 15% | 1008.4 hPa | 0 mm | - | 536 W/m² | - |
| 1777843748 | 30.56° C | 16% | 1008.7 hPa | 0 mm | - | 598 W/m² | - |
| 1777843446 | 30.56° C | 15% | 1008.6 hPa | 0 mm | - | 588 W/m² | - |
| 1777843143 | 31.11° C | 15% | 1008.9 hPa | 0 mm | - | 603 W/m² | - |
| 1777842840 | 30.56° C | 15% | 1009 hPa | 0 mm | - | 659 W/m² | - |
| 1777842535 | 30° C | 15% | 1009.2 hPa | 0 mm | - | 578 W/m² | - |
| 1777842233 | 30° C | 14% | 1009.3 hPa | 0 mm | - | 577 W/m² | - |
| 1777841927 | 30° C | 15% | 1009.5 hPa | 0 mm | - | 632 W/m² | - |
| 1777841624 | 30° C | 15% | 1009.6 hPa | 0 mm | - | 590 W/m² | - |
| 1777841320 | 30.56° C | 15% | 1009.7 hPa | 0 mm | - | 644 W/m² | - |
| 1777841018 | 30° C | 14% | 1009.6 hPa | 0 mm | - | 693 W/m² | - |
| 1777840715 | 30° C | 15% | 1009.9 hPa | 0 mm | - | 688 W/m² | - |
| 1777840412 | 30.56° C | 15% | 1010.1 hPa | 0 mm | - | 614 W/m² | - |
| 1777840109 | 30.56° C | 16% | 1010 hPa | 0 mm | - | 593 W/m² | - |
| 1777839807 | 30.56° C | 15% | 1010.2 hPa | 0 mm | - | 597 W/m² | - |
| 1777839506 | 30° C | 17% | 1010.2 hPa | 0 mm | - | 744 W/m² | - |
| 1777839202 | 30° C | 16% | 1010.6 hPa | 0 mm | - | 736 W/m² | - |
| 1777838900 | 30.56° C | 17% | 1010.3 hPa | 0 mm | - | 755 W/m² | - |
| 1777838595 | 30.56° C | 16% | 1010.6 hPa | 0 mm | - | 624 W/m² | - |
| 1777838293 | 30° C | 17% | 1010.7 hPa | 0 mm | - | 678 W/m² | - |
* Rain latest hour (hover to see other rain measurements)
** Current wind speed in m/s (hover to see current wind gust speed)